Regional Weather Roundup
Issued by NWS

Home | Current Version | Previous Version | Text Only | Print | Product List | Glossary On
Versions: 1 2 3 4 5 6 7 8 9 10 11 12 13 14 15 16 17 18 19 20 21 22 23 24 25 26 27 28 29 30 31 32 33 34 35 36 37 38 39 40 41 42 43 44 45 46 47 48 49 50
842
ASUS43 KLMK 222110
RWRKY
KENTUCKY REGIONAL WEATHER ROUNDUP
NATIONAL WEATHER SERVICE LOUISVILLE KY
400 PM EST SUN JAN 22 2017

NOTE "FAIR" INDICATES FEW OR NO CLOUDS BELOW 12,000 FEET
WITH NO SIGNIFICANT WEATHER AND/OR OBSTRUCTIONS TO VISIBILITY.

KYZ001>023-026-027-061>063-070>075-222200-
WESTERN AND SOUTH CENTRAL KENTUCKY

CITY           SKY/WX    TMP DP  RH WIND       PRES   REMARKS
PADUCAH        PTSUNNY   63  52  67 NE12      29.31F
HENDERSON      PTSUNNY   57  50  77 N10       29.36F
OWENSBORO      MOSUNNY   61  52  72 NE13      29.34F
HOPKINSVILLE   MOSUNNY   63  54  72 N9        29.30F
BOWLING GREEN  CLOUDY    64  53  67 N8        29.30F
GLASGOW        SUNNY     62  52  71 NE8G16    29.31F
$$

KYZ024-025-028>034-038-045-046-053-222200-
NORTH CENTRAL KENTUCKY

CITY           SKY/WX    TMP DP  RH WIND       PRES   REMARKS
LOUISVILLE/SDF LGT RAIN  62  51  67 N9        29.39F
LOUISVILLE/LOU CLOUDY    63  51  65 N10       29.40F
FORT KNOX      CLOUDY    55  54  94 N7        29.36F
$$

KYZ035>037-039>044-047>052-055>060-089>105-222200-
NORTHEAST KENTUCKY

CITY           SKY/WX    TMP DP  RH WIND       PRES   REMARKS
LEXINGTON      CLOUDY    58  51  78 NE9       29.39F
COVINGTON      CLOUDY    61  51  70 NE10      29.44S
FRANKFORT      CLOUDY    59  50  72 N9        29.38F
$$

KYZ054-064>069-076>088-106>120-222200-
SOUTHEAST KENTUCKY

CITY           SKY/WX    TMP DP  RH WIND       PRES   REMARKS
JACKSON        CLOUDY    59  52  77 CALM      29.40R
LONDON         CLOUDY    58  50  75 SW3       29.38R
SOMERSET       CLOUDY    54  54 100 E6        29.38R
MIDDLESBORO    CLOUDY    60  55  82 SE3       29.40R
MONTICELLO     MOCLDY    59  52  77 VRB3      29.39R
$$





USA.gov is the U.S. government's official web portal to all federal, state and local government web resources and services.